AirNav   TITAN Aviation Fuels
 
 579 users online  

1IN4 Robinson Airpark
Elizabeth, Indiana, USA

GOING TO ELIZABETH?


FAA INFORMATION EFFECTIVE 01 DECEMBER 2022

Location

FAA Identifier: 1IN4
Lat/Long: 38-08-35.0000N 085-59-16.0000W
38-08.583333N 085-59.266667W
38.1430556,-85.9877778
(estimated)
Elevation: 775 ft. / 236 m (estimated)
Variation: 03W (1995)
From city: 1 mile NW of ELIZABETH, IN
Time zone: UTC -5 (UTC -4 during Daylight Saving Time)
Zip code: 47117

Airport Operations

Airport use: Private use. Permission required prior to landing
Activation date: 02/1998
Control tower: no
ARTCC: INDIANAPOLIS CENTER
FSS: TERRE HAUTE FLIGHT SERVICE STATION
Attendance: CONTINUOUS
Segmented circle: no

Airport Communications

WX ASOS at SDF (12 nm E): PHONE 502-367-1492
WX ASOS at LOU (16 nm E): 118.275 (502-473-0693)
WX AWOS-3 at JVY (18 nm NE): 118.575 (812-246-1278)

Nearby radio navigation aids

VOR radial/distance  VOR name  Freq  Var
FTKr358/14.2FORT KNOX VOR/DME109.6001W
MYSr040/(19.2)MYSTIC VOR108.2001W
IIUr276/19.5LOUISVILLE VORTAC114.8001E
EWOr333/34.0NEW HOPE VOR/DME110.8001E

 
NDB name  Hdg/Dist  Freq  Var  ID
GODMAN000/11.139603WGOI --. --- ..

Airport Services

Runway Information

Runway 9/27

Dimensions: 2000 x 30 ft. / 610 x 9 m
Surface: turf, in good condition
RUNWAY 9  RUNWAY 27
Traffic pattern: leftleft
Obstructions: none30 ft. trees, 500 ft. from runway

Airport Ownership and Management from official FAA records

Ownership: Privately-owned
Owner: JAMES E. ROBINSON
7300 PINE SHORE DRIVE
ELIZABETH, IN 47117
Phone 812-969-2859
Manager: JAMES E. ROBINSON
7300 PINE SHORE DRIVE
ELIZABETH, IN 47117
Phone 812-969-2859

Additional Remarks

FOR CD CTC LOUISVILLE APCH AT 502-375-7499

Instrument Procedures

There are no published instrument procedures at 1IN4.

Some nearby airports with instrument procedures:

KSDF - Louisville Muhammad Ali International Airport (12 nm E)
KFTK - Godman Army Airfield (14 nm S)
KLOU - Bowman Field Airport (16 nm E)
KJVY - Clark Regional Airport (18 nm NE)
KEKX - Addington Field Airport (28 nm S)
 
Loc | Ops | Rwys | IFR | FBO | Links
Com | Nav | Svcs | Stats | Notes
Area around 1IN4 (Robinson Airpark)
 
Road maps at: MapQuest Bing Google
 
Aerial photo
No photo
 
Sectional chart

 
Airport distance calculator
Flying to Robinson Airpark? Find the distance to fly.

From to 1IN4

Sunrise and sunset
Times for 06-Dec-2022
 Local
(UTC-5)
 Zulu
(UTC)
Morning civil twilight07:1812:18
Sunrise07:4712:47
Sunset17:2322:23
Evening civil twilight17:5222:52

Current date and time
Zulu (UTC)  06-Dec-2022 06:22:35
Local (UTC-5)  06-Dec-2022 01:22:35
 
METAR
KSDF 
12nm E 
060556Z 12004KT 2SM -DZ BR OVC003 09/08 A2994 RMK AO2 SLP139 P0000 60001 T00890083 10089 20061 58001
KFTK 
16nm S 
060600Z AUTO 10003KT 1 1/8SM BR OVC004 07/07 A2991 RMK AO2 SLP133 FZRANO $
KLOU 
16nm E 
060553Z AUTO 14004KT 2SM BR OVC003 08/08 A2994 RMK AO2 SLP139 60001 T00830083 10083 20056 50000
KJVY 
18nm NE 
060555Z AUTO 00000KT 3/4SM OVC002 06/06 A2994 RMK AO2 PWINO
TAF
KSDF 
12nm E 
060522Z 0606/0712 16004KT 2SM -DZ BR OVC004 FM060900 13004KT 1/2SM -DZ FG OVC003 FM061600 17005KT 2SM -DZ BR OVC006 FM062300 19010KT 2SM -SHRA OVC004 FM070400 22008KT 4SM -SHRA VCTS OVC007CB
KFTK 
16nm S 
051200Z 0512/0618 VRB05KT 9999 BKN050 620505 QNH2998INS BECMG 0516/0517 17008KT 9999 BKN030 OVC050 QNH2993INS BECMG 0523/0524 16006KT 9999 VCSH BKN010 OVC020 QNH2991INS BECMG 0605/0606 15003KT 4800 -RA BKN008 OVC010 QNH2992INS TX13/0617Z TNM01/0512Z
NOTAMs
Click for the latest NOTAMs
NOTAMs are issued by the DoD/FAA and will open in a separate window not controlled by AirNav.

 

 
 

Would you like to see your business listed on this page?

 If your business provides an interesting product or service to pilots, flight crews, aircraft, or users of the Robinson Airpark, you should consider listing it here.  To start the listing process, click on the button below
 
Add a business
 

Other Pages about Robinson Airpark

Update a link
 
Copyright © AirNav, LLC. All rights reserved. Privacy Policy  Contact